Location: Lansingburgh
(42.7845°N, 73.6696°W)
Time: 01:57:48
(UTC+00:00)

NOAA 11 - Pass Details

Date: 24 January 2020
Orbit: 832 x 850 km, 98.4° (Epoch: 19 February)

Event Time Altitude Azimuth Distance (km) Brightness Sun altitude
Rises 22:56:54 0° 147° (SSE) 3,402 7.2 -11.1°
Reaches altitude 10° 22:59:20 10° 142° (SE) 2,469 6.4 -11.6°
Maximum altitude 23:04:33 47° 70° (ENE) 1,109 4.4 -12.5°
Drops below altitude 10° 23:09:48 10° 358° (N) 2,476 6.5 -13.4°
Sets 23:12:14 0° 353° (N) 3,413 7.3 -13.8°
